PROFILE

 METAR AND TAF INFORMATION
ADDS - METARS form results

(0556 UTC 19 July 2019)
http://aviationweather.gov/metar/data/
 
EGLL 190550Z AUTO 22007KT 180V270 9999 NCD 14/11 Q1013
EGLL 190520Z AUTO 22005KT 180V260 9999 NCD 14/11 Q1013
TAF EGLL 190456Z 1906/2012 18004KT 9999 SCT035 TEMPO 1907/1911 4000 RA BECMG 1908/1911 20014KT BKN012 PROB40 TEMPO 1911/1920 4000 RADZ BKN008 PROB40 TEMPO 1920/2004 3000 +RA BKN006 BECMG 2004/2007 SCT025 PROB30 TEMPO 2004/2007 6000 SHRA BKN008 PROB30 TEMPO 2010/2012 3000 +SHRA TSRA 

 AIRPORT MAP

 RUNWAY INFORMATION
Runway 09L Runway length 12799 ft Runway width 164 ft
Runway elevation 79 ft Runway displaced threshold 1007 ft Runway heading 90
Runway 27R Runway length 12799 ft Runway width 164 ft
Runway elevation 78 ft Runway displaced threshold 0 ft Runway heading 270
Runway 09R Runway length 12001 ft Runway width 148 ft
Runway elevation 75 ft Runway displaced threshold 1013 ft Runway heading 90
Runway 27L Runway length 12001 ft Runway width 148 ft
Runway elevation 77 ft Runway displaced threshold 0 ft Runway heading 270

 AIRPORT FREQUENCIES
Type APP Name APP Frequency 119.725 MHZ
Type ATIS Name ATIS Frequency 128.075 MHZ
Type CLD Name CLNC DEL Frequency 121.975 MHZ
Type GND Name GND Frequency 121.7 MHZ
Type TWR Name TWR Frequency 118.475 MHZ

 AIRPORT NEAR NAVIGATION AIDS
Type VOR-DME Name London Frequency 113600 KHZ